Preview of NWS' New Version of Forecast
This preview is not operational and should not be used for support decisions.

Regional Weather Roundup (RWR)

Issued by National Weather Service (NWS)

                            
000
ASUS45 KBOI 220410
RWRID 

IDAHO REGIONAL WEATHER ROUNDUP
NATIONAL WEATHER SERVICE BOISE ID
1000 PM MDT SUN APR 21 2019

NOTE: "FAIR" INDICATES FEW OR NO CLOUDS BELOW 12000 FEET
WITH NO SIGNIFICANT WEATHER AND/OR OBSTRUCTIONS TO VISIBILITY

IDZ012-014-220500-
SOUTHWEST IDAHO

  
CITY           SKY/WX    TMP DP  RH WIND       PRES   REMARKS
BOISE          CLEAR     57  37  47 NW16      30.05R                  
CALDWELL       CLEAR     54  38  54 W10       30.09R                  
MOUNTAIN HOME  CLEAR     49  31  51 NW21      30.03R                  
$$

IDZ016-017-220500-
SOUTHCENTRAL IDAHO

  
CITY           SKY/WX    TMP DP  RH WIND       PRES   REMARKS
BURLEY         CLOUDY    47  45  93 SW6       30.06R                  
JEROME         CLOUDY    52  46  80 E10       30.07R                  
TWIN FALLS     LGT RAIN  49  46  90 SE8       30.07R                  
$$

IDZ019>023-220500-
SOUTHEAST IDAHO

  
CITY           SKY/WX    TMP DP  RH WIND       PRES   REMARKS
IDAHO FALLS    CLOUDY    44  38  79 N6        30.08R                  
POCATELLO      CLOUDY    47  45  93 SW3       30.08R                  
REXBURG        CLOUDY    48  34  58 N10       30.07R                  
$$

IDZ006-010-011-018-031-032-220500-
CENTRAL IDAHO MOUNTAINS

  
CITY           SKY/WX    TMP DP  RH WIND       PRES   REMARKS
MCCALL         CLEAR     44  31  60 N7        30.15R                  
HAILEY         MOCLDY    46  45  93 E5        30.11R                  
STANLEY          N/A     39  30  70 CALM      30.15R                  
SALMON         CLOUDY    51  36  56 N9        30.15R                  
CHALLIS        CLOUDY    51  35  54 N13       30.12R                  
$$

IDZ002-004-006-007-026-220500-
NORTHERN IDAHO

  
CITY           SKY/WX    TMP DP  RH WIND       PRES   REMARKS
LEWISTON       CLEAR     58  34  40 SW5       30.18R                  
LOWELL           N/A     50  49  96 CALM      30.21R                  
COEUR D'ALENE  CLEAR     50  41  71 SW3       30.17R                  
MULLAN PASS    CLEAR     40  30  67 NW7       30.20R                  
$$